User: anonymous   Login
Location: Mentone
(34.5413°N, 85.5351°W)
Time: 10:17:37
(UTC-05:00)
Language:

Cosmos 2026 Rocket - Orbit

View from above orbital plane
View from above orbital plane
View from above satellite
View from above satellite

Ground track
Ground track

The orbit data is extracted from the following two-line orbital elements,

1 20046U 89042B   15183.83280466  .00000015  00000-0 -33529-6 0  9995
2 20046 082.9390 116.2711 0040612 274.8246 108.4883 13.78017021310736
Epoch (UTC): 02 July 2015 19:59:14
Eccentricity: 0.0040612
inclination: 82.9390°
perigee height: 941 km
apogee height: 1001 km
right ascension of ascending node: 116.2711°
argument of perigee: 274.8246°
revolutions per day: 13.78017021
mean anomaly at epoch: 108.4883°
orbit number at epoch: 31073

The dashed part of the orbit path shows where the satellite is in the earth's shadow,  

DLR